CW7283 Weather Reports


time (UTC)temp
F
wind
direction
speed
knots
gust
knots
rain 1hr
in
rain 24hr
in
rain mn
in
humidity
%
barometer
mb
20260901230328 74 113 0.9 5.2 0.00 0.00 0.00 41 1012.3
20260901224855 75 232 0.9 2.6 0.00 0.00 0.00 42 1012.3
20260901223404 74 278 0.0 1.7 0.00 0.00 0.00 40 1012.3
20260901221841 74 246 0.0 2.6 0.00 0.00 0.00 42 1012.4
20260901220353 75 263 0.9 7.0 0.00 0.00 0.00 40 1012.3
20260901214834 77 287 0.0 1.7 0.00 0.00 0.00 38 1012.3
20260901213348 78 355 0.0 1.7 0.00 0.00 0.00 34 1012.1
20260901211832 78 286 0.0 1.7 0.00 0.00 0.00 35 1012.0
20260901210351 79 235 0.0 1.7 0.00 0.00 0.00 36 1011.9
20260901204850 80 201 0.0 3.5 0.00 0.00 0.00 37 1011.8
20260901203404 80 290 0.0 3.5 0.00 0.00 0.00 37 1011.8
20260901201849 81 109 0.0 2.6 0.00 0.00 0.00 35 1011.8
20260901200341 81 148 0.0 2.6 0.00 0.00 0.00 34 1011.8
20260901194841 82 98 0.0 4.3 0.00 0.00 0.00 34 1011.8
20260901193348 81 121 0.0 2.6 0.00 0.00 0.00 36 1011.9
20260901191828 81 254 0.0 2.6 0.00 0.00 0.00 37 1011.9
20260901190341 81 199 0.9 10.4 0.00 0.00 0.00 35 1012.3
20260901184839 81 78 0.9 4.3 0.00 0.00 0.00 37 1012.4
20260901183355 79 119 0.0 3.5 0.00 0.00 0.00 37 1012.5
20260901181849 76 203 0.0 1.7 0.00 0.00 0.00 40 1012.9
20260901180400 75 206 0.0 1.7 0.00 0.00 0.00 38 1013.0
20260901174837 74 254 0.0 1.7 0.00 0.00 0.00 41 1013.4
20260901173350 73 115 0.0 1.7 0.00 0.00 0.00 40 1013.5
20260901171846 72 311 0.0 0.9 0.00 0.00 0.00 37 1013.7
20260901170334 71 355 0.0 1.7 0.00 0.00 0.00 39 1013.8
20260901164843 71 295 0.0 0.9 0.00 0.00 0.00 40 1014.0
20260901163337 70 55 0.0 1.7 0.00 0.00 0.00 38 1013.9
20260901161850 69 17 0.0 1.7 0.00 0.00 0.00 39 1014.0
20260901160341 66 318 0.0 1.7 0.00 0.00 0.00 42 1014.0
20260901154836 63 321 0.0 1.7 0.00 0.00 0.00 44 1014.2
20260901153345 60 46 0.0 1.7 0.00 0.00 0.00 49 1014.2
20260901151839 58 360 0.0 0.0 0.00 0.00 0.00 51 1014.2
20260901150330 56 360 0.0 1.7 0.00 0.00 0.00 56 1014.2
20260901144827 54 295 0.0 0.9 0.00 0.00 0.00 52 1014.1
20260901143327 52 279 0.0 0.0 0.00 0.00 0.00 62 1014.3
20260901141844 52 279 0.0 0.0 0.00 0.00 0.00 66 1013.9
20260901140327 52 279 0.0 0.0 0.00 0.00 0.00 64 1014.1
20260901134828 51 279 0.0 0.0 0.00 0.00 0.00 66 1014.0
20260901133348 51 279 0.0 0.0 0.00 0.00 0.00 64 1013.7
20260901131850 51 279 0.0 0.0 0.00 0.00 0.00 63 1013.8
20260901130401 51 279 0.0 0.0 0.00 0.00 0.00 61 1014.0
20260901124829 51 279 0.0 0.0 0.00 0.00 0.00 60 1013.9
20260901123346 51 279 0.0 0.0 0.00 0.00 0.00 58 1013.8
20260901121850 51 279 0.0 0.0 0.00 0.00 0.00 55 1013.8
20260901120323 51 279 0.0 0.0 0.00 0.00 0.00 54 1013.9
20260901114836 51 279 0.0 0.0 0.00 0.00 0.00 58 1014.0
20260901113331 51 279 0.0 0.0 0.00 0.00 0.00 58 1014.1
20260901111827 51 279 0.0 0.0 0.00 0.00 0.00 58 1014.2
20260901110339 52 279 0.0 0.0 0.00 0.00 0.00 57 1014.2
20260901104834 51 279 0.0 0.0 0.00 0.00 0.00 55 1014.3
20260901103352 51 279 0.0 0.0 0.00 0.00 0.00 55 1014.2
20260901101842 52 320 0.0 0.0 0.00 0.00 0.00 54 1014.2
20260901100346 52 320 0.0 0.0 0.00 0.00 0.00 52 1014.2
20260901094834 52 327 0.0 0.0 0.00 0.00 0.00 52 1014.3
20260901093351 52 304 0.0 0.9 0.00 0.00 0.00 52 1014.7
20260901091849 52 300 0.0 0.0 0.00 0.00 0.00 52 1014.7
20260901090341 52 311 0.0 1.7 0.00 0.00 0.00 52 1014.8
20260901084831 52 308 0.0 0.0 0.00 0.00 0.00 53 1014.9
20260901083330 51 312 0.0 0.0 0.00 0.00 0.00 54 1015.2
20260901081843 51 295 0.0 0.0 0.00 0.00 0.00 56 1015.3
20260901080349 51 291 0.0 0.0 0.00 0.00 0.00 57 1015.3
20260901074844 51 289 0.0 0.0 0.00 0.00 0.00 59 1015.5
20260901073406 50 286 0.0 0.0 0.00 0.00 0.00 60 1015.9
20260901071845 50 286 0.0 0.0 0.00 0.00 0.00 62 1015.9
20260901070325 50 285 0.0 0.0 0.00 0.00 0.00 61 1016.2
20260901064904 50 285 0.0 0.0 0.00 0.00 0.00 62 1016.4
20260901063328 51 275 0.0 0.0 0.00 0.00 0.00 62 1016.4
20260901061837 52 200 0.0 0.0 0.00 0.00 0.00 62 1016.5
20260901060329 52 200 0.0 0.0 0.00 0.00 0.00 63 1016.5
20260901054859 53 195 0.0 0.0 0.00 0.00 0.00 59 1016.5
20260901053357 54 195 0.0 0.0 0.00 0.00 0.00 60 1016.5
20260901051852 54 195 0.0 0.0 0.00 0.00 0.00 58 1016.5
20260901050345 55 226 0.0 0.0 0.00 0.00 0.00 58 1016.6
20260901044846 56 226 0.0 0.0 0.00 0.00 0.00 57 1016.5
20260901043334 56 226 0.0 0.0 0.00 0.00 0.00 54 1016.5
20260901041832 57 226 0.0 0.0 0.00 0.00 0.00 53 1016.5
20260901040350 58 254 0.0 0.0 0.00 0.00 0.00 51 1016.5
20260901034842 59 171 0.0 0.0 0.00 0.00 0.00 51 1016.6
20260901033346 60 59 0.0 0.0 0.00 0.00 0.00 46 1016.4
20260901031845 62 60 0.0 0.0 0.00 0.00 0.00 44 1016.5
20260901030350 63 59 0.0 0.0 0.00 0.00 0.00 42 1016.3
20260901024904 64 51 0.0 0.0 0.00 0.00 0.00 42 1016.0
20260901023359 65 51 0.0 0.0 0.00 0.00 0.00 42 1015.9
20260901021833 67 49 0.0 0.0 0.00 0.00 0.00 40 1015.8
20260901020329 68 49 0.0 0.0 0.00 0.00 0.00 40 1015.8
20260901014839 70 49 0.0 0.0 0.00 0.00 0.00 35 1015.7
20260901013334 72 49 0.0 0.0 0.00 0.00 0.00 34 1015.4
20260901011829 73 49 0.0 0.0 0.00 0.00 0.00 33 1015.2
20260901010329 74 49 0.0 0.0 0.00 0.00 0.00 30 1015.3
20260901004842 75 49 0.0 0.0 0.00 0.00 0.00 29 1015.3
20260901003330 76 49 0.0 0.0 0.00 0.00 0.00 29 1015.3
20260901001832 77 48 0.0 0.0 0.00 0.00 0.00 28 1015.3
20260901000330 79 72 0.0 0.0 0.00 0.00 0.00 27 1015.3
20260831234827 78 97 0.0 0.0 0.00 0.00 0.00 28 1015.4
20260831233353 79 127 0.0 1.7 0.00 0.00 0.00 28 1015.6
20260831231837 79 330 0.0 0.0 0.00 0.00 0.00 30 1015.8